Regional Weather Roundup
Issued by NWS

Home | Current Version | Previous Version | Text Only | Print | Product List | Glossary On
Versions: 1 2 3 4 5 6 7 8 9 10 11 12 13 14 15 16 17 18 19 20 21 22 23 24 25 26 27 28 29 30 31 32 33 34 35 36 37 38 39 40 41 42 43 44 45 46 47 48 49 50
000
ASUS44 KEWX 202002
RWRTX
SOUTH TEXAS REGIONAL WEATHER ROUNDUP
NATIONAL WEATHER SERVICE AUSTIN/SAN ANTONIO TX
300 PM CDT SUN APR 20 2014

NOTE: "FAIR" INDICATED FEW OR NO CLOUDS BELOW 12,000 FEET WITH NO
SIGNIFICANT WEATHER AND/OR OBSTRUCTIONS TO VISIBILITY.

* - THESE STATIONS ARE NOT NWS OR FAA STATIONS...AND ARE NOT SUBJECT
    TO NWS AND FAA QUALITY CONTROL.

TXZ171-172-183>190-202100-
TEXAS HILL COUNTRY AND EDWARDS PLATEAU

CITY           SKY/WX    TMP DP  RH WIND       PRES   REMARKS
JUNCTION       CLOUDY    71  61  70 S10       30.07F
*LLANO         CLOUDY    73  61  64 S9        30.11F
BURNET         CLOUDY    71  60  68 SE7G16    30.11F
*HORSESHOE BAY CLOUDY    72  59  63 S8G18     30.08F
*KERRVILLE     DRIZZLE   64  62  93 SE13      30.10F
*FREDERICKSBRG CLOUDY    67  60  80 S8        30.10F
*ROCKSPRINGS   CLOUDY    64  64 100 SE13      30.11F FOG
*BOERNE STAGE  CLOUDY    64  61  88 SE7       30.11F
*CASTROVILLE   CLOUDY    71  62  74 SE12      30.09F
HONDO          CLOUDY    73  65  75 SE9       30.09F
*UVALDE        CLOUDY    69  66  91 SE9       30.08S FOG
DEL RIO        CLOUDY    72  66  81 SE14      30.02F
LAUGHLIN AFB   CLOUDY    70  68  94 SE14      30.03F
CARRIZO SPRGS  CLOUDY    73  64  73 S13       30.03F
$$

TXZ173-191>194-202-209-217>225-228-202100-
CENTRAL AND SOUTH CENTRAL TEXAS

CITY           SKY/WX    TMP DP  RH WIND       PRES   REMARKS
GEORGETOWN     CLOUDY    73  61  64 S14       30.09F
AUSTIN/BERGSTM CLOUDY    75  61  61 S16       30.08F
AUSTIN/MABRY   CLOUDY    73  61  65 SE10      30.10F
*AUSTIN/EXEC   CLOUDY    75  61  60 S12       30.09F
*LAGO VISTA    CLOUDY    71  61  70 S8        30.11F
SAN MARCOS     CLOUDY    72  61  68 SE13      30.11F
NEW BRAUNFELS  CLOUDY    71  63  75 S9        30.08F
RANDOLPH AFB   PTSUNNY   71  62  72 SE8       30.09F
PT SAN ANTONIO CLOUDY    71  64  77 E8        30.07F
SAN ANTONIO    CLOUDY    71  64  78 SE8       30.09F
STINSON FIELD  CLOUDY    73  64  73 SE8       30.07F
*PLEASANTON    CLOUDY    75  62  62 SE10      30.08F
*LA GRANGE     SUNNY     78  63  59 S12       30.09F
*GIDDINGS      PTSUNNY   77  56  48 S8G16     30.14F
*GONZALES      CLOUDY    77  62  59 SE9G16    30.08F
$$

TXZ163>164-176>182-195>201-210>213-226-227-235-202100-
SOUTHEAST TEXAS

CITY           SKY/WX    TMP DP  RH WIND       PRES   REMARKS
COLLEGE STN    PTSUNNY   79  57  46 S10G25    30.10F
*BRYAN         MOSUNNY   78  58  50 SE10G20   30.11F
*CALDWELL      PTSUNNY   77  54  44 S13G21    30.13F
*CROCKETT      SUNNY     81  61  50 S12       30.14F
*BRENHAM       SUNNY     78  56  45 S13G22    30.12F
HUNTSVILLE     CLOUDY    78  55  44 S6        30.11F
CONROE         MOSUNNY   80  53  39 S16       30.12F
HOUSTON BUSH   MOSUNNY   79  52  38 SE13      30.12F
HOUSTON HOBBY  MOSUNNY   78  53  41 S15       30.12F
*HOUSTON SW AP SUNNY     80  51  36 SE9G16    30.14S
PEARLAND       SUNNY     79  51  37 SE13G21   30.14F
HOUSTON HOOKS  CLOUDY    79  54  41 S7        30.12F
ELLINGTON FLD  MOSUNNY   81  57  44 SE8G17    30.14F
SUGAR LAND     MOSUNNY   80  54  40 S13G18    30.11F
*HOUSTON EXEC  PTSUNNY   81  64  57 SE14      30.13F
*CLEVELAND MUN SUNNY     80  58  46 S10G17    30.14F
*WHARTON       CLOUDY    78  54  42 SE15      30.12F
$$

TXZ214>216-236>238-202100-
THE UPPER TEXAS COAST

CITY           SKY/WX    TMP DP  RH WIND       PRES   REMARKS
*ORANGE        SUNNY     80  53  39 S8        30.15F
PORT ARTHUR    SUNNY     81  54  39 S10G23    30.13F
GALVESTON      SUNNY     72  66  81 SE10      30.15F
ANGLETON       SUNNY     77  58  51 SE14G20   30.13F
*BAY CITY      MOSUNNY   80  58  47 SE15      30.12F
PALACIOS       MOSUNNY   76  61  59 SE17      30.12
$$

TXZ229>234-239>247-202100-
TEXAS COASTAL BEND AND RIO GRANDE PLAINS

CITY           SKY/WX    TMP DP  RH WIND       PRES   REMARKS
VICTORIA       CLOUDY    81  58  45 SE17      30.09F
*BEEVILLE      CLOUDY    79  63  57 S14G21    30.08F
ROCKPORT       PTSUNNY   77  64  64 SE18      30.10S
*PORT ARANSAS  PTSUNNY   74  66  76 SE15G21   30.10F
*PORT LAVACA   NOT AVBL
*INGLESIDE     CLOUDY    79  64  58 SE21      30.10S
CORPUS CHRISTI PTSUNNY   80  62  54 SE18      30.08F
CORPUS NAS     PTSUNNY   78  66  66 SE24      30.09F
*ROBSTOWN      CLOUDY    80  63  56 SE18G24   30.08F
ALICE          PTSUNNY   81  64  56 SE18G25   30.05F
KINGSVILLE NAS PTSUNNY   82  65  56 SE21G28   30.06F
COTULLA        CLOUDY    76  63  64 SE9       30.05F
*FAITH RANCH   CLOUDY    75  64  69 SE8G17    30.04F
LAREDO         PTSUNNY   80  66  62 SE13      30.06F
$$

TXZ248>255-202100-
DEEP SOUTH TEXAS

CITY           SKY/WX    TMP DP  RH WIND       PRES   REMARKS
BROWNSVILLE    CLOUDY    78  65  63 SE17      30.07S
PORT ISABEL    CLOUDY    77  66  68 E17G23    30.07S
*SOUTH PADRE   MOSUNNY   77  68  73 MISG      30.08S
HARLINGEN      CLOUDY    79  65  62 E23G29    30.04F
*HEBBRONVILLE  CLOUDY    77  64  64 E13       30.06F
MCALLEN        CLOUDY    78  65  63 SE10      30.05F
*WESLACO       CLOUDY    80  63  55 SE15      30.05S
FALFURRIAS     CLOUDY    81  64  56 E15       30.05S
EDINBURG       CLOUDY    82  63  52 SE14      30.05S
*ZAPATA        CLOUDY    78  65  64 SE12G24   30.03F
$$

TXZ213>215-236>238-242>244-246-247-251-254-255-202100-
CMAN STATIONS

STATION/POSITION TIME  TEMP    WIND        PRES    WAVE
                       AIR SEA DIR/SP/G            HT/PER
                 (UTC) (F)     (DEG/KT/KT) (MB)    (FT/S)
SABINE PASS      1900   72 68  140/  9/ 10 1020.9
SEA RIM ST PARK  1900   71     180/  7/  8 1021.8
NORTH JETTY/GLS  1900   67 70  140/ 10/ 12   N/A
EAGLE POINT      1900   69 65  150/ 10/ 11 1020.7
MORGANS POINT    1900   71 65  160/  7/ 11   N/A
MISSION/ARANSAS  1900   71     120/ 14     1020.0
PORT O`CONNOR    1900          130/ 12/ 14   N/A
PORT ARANSAS     1900   69 70  100/ 16/ 18 1019.8
MALAQUITE BEACH  1900   69 70  100/ 15/ 16 1018.5
BAFFIN BAY       1900   71 72  120/ 16/ 21 1018.8
PORT ISABEL      1900   74 71  110/ 17/ 21 1019.0
$$

GMZ080-GMZ150>470-202100-
OFFSHORE BUOY REPORTS

STATION/POSITION TIME  TEMP    WIND        PRES    WAVE
                       AIR SEA DIR/SP/G            HT/PER
                 (UTC) (F)     (DEG/KT/KT) (MB)    (FT/S)
20 E GALVESTON   2000   67 69  110/ 10/ 12 1020.5    1/ 5
35 NE PT MANSFLD 2000   69 69  110/ 14/ 14 1018.9    3/ 6
$$



USA.gov is the U.S. government's official web portal to all federal, state and local government web resources and services.